| time (UTC) | temp C | wind direction | speed KPH | gust KPH | rain 1hr cm | rain 24hr cm | rain mn cm | humidity % | barometer mb |
| 20260509213013 | 21 | 348 | 0.0 | 3.2 | 0.00 | 0.00 | 0.00 | 48 | 1007.1 |
| 20260509211507 | 21 | 355 | 0.0 | 1.6 | 0.00 | 0.00 | 0.00 | 48 | 1007.1 |
| 20260509210005 | 22 | 351 | 0.0 | 3.2 | 0.00 | 0.00 | 0.00 | 48 | 1007.1 |
| 20260509204505 | 22 | 355 | 0.0 | 3.2 | 0.00 | 0.00 | 0.00 | 47 | 1007.0 |
| 20260509203005 | 22 | 103 | 0.0 | 3.2 | 0.00 | 0.00 | 0.00 | 47 | 1006.9 |
| 20260509201503 | 22 | 107 | 0.0 | 3.2 | 0.00 | 0.00 | 0.00 | 46 | 1007.0 |
| 20260509200001 | 22 | 101 | 0.0 | 4.8 | 0.00 | 0.00 | 0.00 | 45 | 1007.0 |
| 20260509194600 | 22 | 341 | 0.0 | 4.8 | 0.00 | 0.00 | 0.00 | 46 | 1007.2 |
| 20260509193108 | 23 | 115 | 0.0 | 6.4 | 0.00 | 0.00 | 0.00 | 45 | 1007.5 |
| 20260509191607 | 23 | 119 | 0.0 | 4.8 | 0.00 | 0.00 | 0.00 | 44 | 1007.4 |
| 20260509190058 | 22 | 343 | 0.0 | 3.2 | 0.00 | 0.00 | 0.00 | 46 | 1007.5 |
| 20260509184559 | 22 | 14 | 1.6 | 6.4 | 0.00 | 0.00 | 0.00 | 45 | 1007.6 |
| 20260509183056 | 22 | 182 | 0.0 | 3.2 | 0.00 | 0.00 | 0.00 | 45 | 1008.1 |
| 20260509181546 | 21 | 134 | 0.0 | 3.2 | 0.00 | 0.00 | 0.00 | 47 | 1008.3 |
| 20260509180043 | 21 | 335 | 0.0 | 6.4 | 0.00 | 0.00 | 0.00 | 48 | 1008.3 |
| 20260509174558 | 20 | 343 | 0.0 | 8.0 | 0.00 | 0.00 | 0.00 | 48 | 1008.7 |
| 20260509173047 | 20 | 346 | 1.6 | 6.4 | 0.00 | 0.00 | 0.00 | 49 | 1008.9 |
| 20260509171538 | 19 | 333 | 1.6 | 8.0 | 0.00 | 0.00 | 0.00 | 49 | 1009.1 |
| 20260509170038 | 19 | 338 | 0.0 | 8.0 | 0.00 | 0.00 | 0.00 | 49 | 1009.4 |
| 20260509164537 | 20 | 348 | 1.6 | 8.0 | 0.00 | 0.00 | 0.00 | 47 | 1009.5 |
| 20260509163041 | 20 | 304 | 0.0 | 6.4 | 0.00 | 0.00 | 0.00 | 46 | 1009.4 |
| 20260509161536 | 20 | 338 | 1.6 | 6.4 | 0.00 | 0.00 | 0.00 | 45 | 1009.3 |
| 20260509160036 | 20 | 334 | 1.6 | 8.0 | 0.00 | 0.00 | 0.00 | 45 | 1009.0 |
| 20260509154532 | 20 | 341 | 1.6 | 8.0 | 0.00 | 0.00 | 0.00 | 46 | 1009.1 |
| 20260509153042 | 19 | 329 | 0.0 | 9.7 | 0.00 | 0.00 | 0.00 | 48 | 1009.3 |
| 20260509151529 | 19 | 58 | 0.0 | 4.8 | 0.00 | 0.00 | 0.00 | 46 | 1009.4 |
| 20260509150028 | 19 | 325 | 1.6 | 6.4 | 0.00 | 0.00 | 0.00 | 46 | 1009.6 |
| 20260509144529 | 18 | 345 | 0.0 | 8.0 | 0.00 | 0.00 | 0.00 | 49 | 1009.4 |
| 20260509143020 | 18 | 333 | 0.0 | 3.2 | 0.00 | 0.00 | 0.00 | 47 | 1009.8 |
| 20260509141517 | 17 | 190 | 0.0 | 3.2 | 0.00 | 0.00 | 0.00 | 47 | 1010.0 |
| 20260509140015 | 17 | 172 | 0.0 | 3.2 | 0.00 | 0.00 | 0.00 | 51 | 1010.1 |
| 20260509134510 | 16 | 257 | 0.0 | 3.2 | 0.00 | 0.00 | 0.00 | 52 | 1010.1 |
| 20260509133007 | 16 | 257 | 0.0 | 3.2 | 0.00 | 0.00 | 0.00 | 55 | 1009.9 |
| 20260509131509 | 15 | 332 | 0.0 | 0.0 | 0.00 | 0.00 | 0.00 | 56 | 1009.9 |
| 20260509130011 | 15 | 332 | 0.0 | 3.2 | 0.00 | 0.00 | 0.00 | 58 | 1010.1 |
| 20260509124503 | 15 | 332 | 0.0 | 3.2 | 0.00 | 0.00 | 0.00 | 54 | 1010.0 |
| 20260509123004 | 14 | 332 | 0.0 | 3.2 | 0.00 | 0.00 | 0.00 | 54 | 1010.1 |
| 20260509121508 | 14 | 331 | 0.0 | 3.2 | 0.00 | 0.00 | 0.00 | 55 | 1010.1 |
| 20260509120003 | 13 | 312 | 0.0 | 3.2 | 0.00 | 0.00 | 0.00 | 56 | 1010.0 |
| 20260509114503 | 13 | 310 | 0.0 | 3.2 | 0.00 | 0.00 | 0.00 | 56 | 1010.1 |
| 20260509113002 | 13 | 194 | 0.0 | 1.6 | 0.00 | 0.00 | 0.00 | 55 | 1009.9 |
| 20260509111501 | 13 | 194 | 0.0 | 3.2 | 0.00 | 0.00 | 0.00 | 55 | 1009.7 |
| 20260509110001 | 13 | 202 | 0.0 | 3.2 | 0.00 | 0.00 | 0.00 | 53 | 1009.7 |
| 20260509104600 | 13 | 198 | 0.0 | 3.2 | 0.00 | 0.00 | 0.00 | 54 | 1009.6 |
| 20260509103104 | 13 | 198 | 0.0 | 3.2 | 0.00 | 0.00 | 0.00 | 54 | 1009.6 |
| 20260509101618 | 14 | 198 | 0.0 | 3.2 | 0.00 | 0.00 | 0.00 | 53 | 1009.6 |
| 20260509100059 | 14 | 198 | 0.0 | 0.0 | 0.00 | 0.00 | 0.00 | 53 | 1009.6 |
| 20260509094606 | 14 | 198 | 0.0 | 3.2 | 0.00 | 0.00 | 0.00 | 52 | 1009.6 |
| 20260509093057 | 15 | 198 | 0.0 | 3.2 | 0.00 | 0.00 | 0.00 | 51 | 1009.6 |
| 20260509091606 | 15 | 193 | 0.0 | 3.2 | 0.00 | 0.00 | 0.00 | 48 | 1009.6 |
| 20260509084559 | 15 | 177 | 0.0 | 3.2 | 0.00 | 0.00 | 0.00 | 48 | 1009.7 |
| 20260509083059 | 15 | 183 | 0.0 | 3.2 | 0.00 | 0.00 | 0.00 | 48 | 1009.7 |
| 20260509081551 | 14 | 134 | 0.0 | 3.2 | 0.00 | 0.00 | 0.00 | 49 | 1009.8 |
| 20260509080053 | 15 | 156 | 0.0 | 3.2 | 0.00 | 0.00 | 0.00 | 49 | 1009.8 |
| 20260509074552 | 15 | 159 | 0.0 | 0.0 | 0.00 | 0.00 | 0.00 | 51 | 1010.0 |
| 20260509073050 | 15 | 159 | 0.0 | 0.0 | 0.00 | 0.00 | 0.00 | 50 | 1010.0 |
| 20260509071546 | 15 | 159 | 0.0 | 3.2 | 0.00 | 0.00 | 0.00 | 45 | 1010.0 |
| 20260509070043 | 15 | 184 | 0.0 | 3.2 | 0.00 | 0.00 | 0.00 | 46 | 1010.1 |
| 20260509064539 | 14 | 158 | 0.0 | 3.2 | 0.00 | 0.00 | 0.00 | 50 | 1010.3 |
| 20260509063038 | 13 | 142 | 0.0 | 3.2 | 0.00 | 0.00 | 0.00 | 51 | 1010.4 |
| 20260509061537 | 13 | 142 | 0.0 | 0.0 | 0.00 | 0.00 | 0.00 | 53 | 1010.4 |
| 20260509060040 | 13 | 142 | 0.0 | 0.0 | 0.00 | 0.00 | 0.00 | 55 | 1010.6 |
| 20260509054534 | 13 | 142 | 0.0 | 3.2 | 0.00 | 0.00 | 0.00 | 54 | 1010.6 |
| 20260509053049 | 13 | 142 | 0.0 | 0.0 | 0.00 | 0.00 | 0.00 | 55 | 1010.6 |
| 20260509051540 | 13 | 142 | 0.0 | 3.2 | 0.00 | 0.00 | 0.00 | 54 | 1010.7 |
| 20260509050030 | 14 | 142 | 0.0 | 3.2 | 0.00 | 0.00 | 0.00 | 54 | 1010.6 |
| 20260509044527 | 14 | 118 | 0.0 | 3.2 | 0.00 | 0.00 | 0.00 | 53 | 1010.6 |
| 20260509043030 | 14 | 169 | 0.0 | 3.2 | 0.00 | 0.00 | 0.00 | 52 | 1010.7 |
| 20260509041525 | 15 | 169 | 0.0 | 3.2 | 0.00 | 0.00 | 0.00 | 52 | 1010.6 |
| 20260509040029 | 14 | 172 | 0.0 | 3.2 | 0.00 | 0.00 | 0.00 | 52 | 1010.6 |
| 20260509034521 | 13 | 142 | 0.0 | 4.8 | 0.00 | 0.00 | 0.00 | 53 | 1010.8 |
| 20260509033021 | 13 | 153 | 0.0 | 0.0 | 0.00 | 0.00 | 0.00 | 54 | 1010.8 |
| 20260509031527 | 14 | 153 | 0.0 | 3.2 | 0.00 | 0.00 | 0.00 | 55 | 1010.7 |
| 20260509030037 | 14 | 153 | 0.0 | 0.0 | 0.00 | 0.00 | 0.00 | 60 | 1010.9 |
| 20260509024520 | 15 | 153 | 0.0 | 0.0 | 0.00 | 0.00 | 0.00 | 59 | 1011.0 |
| 20260509023022 | 15 | 153 | 0.0 | 3.2 | 0.00 | 0.00 | 0.00 | 48 | 1011.0 |
| 20260509021530 | 15 | 153 | 0.0 | 1.6 | 0.00 | 0.00 | 0.00 | 49 | 1010.9 |
| 20260509020018 | 16 | 153 | 0.0 | 1.6 | 0.00 | 0.00 | 0.00 | 51 | 1010.9 |
| 20260509014517 | 16 | 153 | 0.0 | 0.0 | 0.00 | 0.00 | 0.00 | 48 | 1011.0 |
| 20260509013017 | 17 | 153 | 0.0 | 0.0 | 0.00 | 0.00 | 0.00 | 46 | 1010.9 |
| 20260509011516 | 17 | 153 | 0.0 | 0.0 | 0.00 | 0.00 | 0.00 | 42 | 1010.8 |
| 20260509010017 | 18 | 155 | 0.0 | 3.2 | 0.00 | 0.00 | 0.00 | 41 | 1010.7 |
| 20260509004523 | 18 | 124 | 0.0 | 3.2 | 0.00 | 0.00 | 0.00 | 40 | 1010.6 |
| 20260509003015 | 18 | 148 | 0.0 | 3.2 | 0.00 | 0.00 | 0.00 | 38 | 1010.5 |
| 20260509001515 | 19 | 126 | 0.0 | 3.2 | 0.00 | 0.00 | 0.00 | 37 | 1010.4 |
| 20260509000014 | 20 | 127 | 0.0 | 3.2 | 0.00 | 0.00 | 0.00 | 35 | 1010.3 |
| 20260508234515 | 20 | 128 | 0.0 | 3.2 | 0.00 | 0.00 | 0.00 | 33 | 1010.1 |
| 20260508233014 | 21 | 122 | 0.0 | 3.2 | 0.00 | 0.00 | 0.00 | 32 | 1010.1 |
| 20260508231512 | 21 | 126 | 0.0 | 3.2 | 0.00 | 0.00 | 0.00 | 32 | 1010.1 |
| 20260508230011 | 21 | 190 | 0.0 | 3.2 | 0.00 | 0.00 | 0.00 | 30 | 1010.0 |
| 20260508224509 | 22 | 197 | 0.0 | 3.2 | 0.00 | 0.00 | 0.00 | 30 | 1010.0 |
| 20260508223022 | 22 | 341 | 0.0 | 3.2 | 0.00 | 0.00 | 0.00 | 30 | 1010.0 |
| 20260508221508 | 23 | 238 | 0.0 | 4.8 | 0.00 | 0.00 | 0.00 | 28 | 1009.9 |
| 20260508220010 | 22 | 288 | 0.0 | 3.2 | 0.00 | 0.00 | 0.00 | 29 | 1009.9 |
| 20260508214506 | 22 | 217 | 0.0 | 4.8 | 0.00 | 0.00 | 0.00 | 30 | 1009.9 |